• In Hungary
  • List of Countries
  • For 7 days
  • Water Temperature
  • Satellite Maps
  • Weather Map
  • News
  • Weather Widgets
  • user-avatar
    Login

    Hourly Weather Madras

    Today, 22 June, Friday

    Time Temperature Precipitation Wind Pressure Humidity
    00:00 +35°C° 0.1 mm 5 mps 752 mmHg 55%
    01:00 +35°C° 0.1 mm 5 mps 752 mmHg 54%
    02:00 +34°C° 0.1 mm 5 mps 751 mmHg 53%
    03:00 +34°C° 0 mm 5 mps 752 mmHg 53%
    04:00 +33°C° 0 mm 6 mps 752 mmHg 54%
    05:00 +33°C° 0 mm 5 mps 752 mmHg 56%
    06:00 +33°C° 0 mm 5 mps 752 mmHg 54%
    07:00 +34°C° 0 mm 5 mps 753 mmHg 52%
    08:00 +35°C° 0 mm 5 mps 753 mmHg 49%
    09:00 +36°C° 0 mm 5 mps 753 mmHg 46%
    10:00 +37°C° 0 mm 4 mps 753 mmHg 43%
    11:00 +38°C° 0 mm 4 mps 753 mmHg 40%
    12:00 +38°C° 0 mm 4 mps 752 mmHg 40%
    13:00 +38°C° 0 mm 4 mps 752 mmHg 39%
    14:00 +40°C° 0 mm 4 mps 751 mmHg 38%
    15:00 +38°C° 0 mm 4 mps 751 mmHg 41%
    16:00 +37°C° 0 mm 5 mps 751 mmHg 43%
    17:00 +37°C° 0 mm 5 mps 751 mmHg 45%
    18:00 +36°C° 0.3 mm 5 mps 751 mmHg 50%
    19:00 +35°C° 0.3 mm 6 mps 751 mmHg 54%
    20:00 +34°C° 0.3 mm 6 mps 751 mmHg 59%
    21:00 +34°C° 0.3 mm 7 mps 752 mmHg 59%
    22:00 +34°C° 0.3 mm 7 mps 752 mmHg 60%
    23:00 +34°C° 0.3 mm 8 mps 752 mmHg 60%

    Tomorrow, 23 June, Saturday

    Time Temperature Precipitation Wind Pressure Humidity
    00:00 +34°C° 0.4 mm 7 mps 752 mmHg 58%
    01:00 +34°C° 0.4 mm 7 mps 751 mmHg 56%
    02:00 +34°C° 0.4 mm 6 mps 751 mmHg 54%
    03:00 +34°C° 0.1 mm 5 mps 751 mmHg 54%
    04:00 +33°C° 0.1 mm 5 mps 751 mmHg 54%
    05:00 +33°C° 0.1 mm 4 mps 751 mmHg 53%
    06:00 +33°C° 0 mm 4 mps 752 mmHg 52%
    07:00 +34°C° 0 mm 5 mps 753 mmHg 51%
    08:00 +35°C° 0 mm 5 mps 753 mmHg 49%
    09:00 +36°C° 0 mm 5 mps 753 mmHg 46%
    10:00 +37°C° 0 mm 4 mps 753 mmHg 43%
    11:00 +38°C° 0 mm 4 mps 753 mmHg 40%
    12:00 +40°C° 0 mm 4 mps 752 mmHg 39%
    13:00 +40°C° 0 mm 5 mps 752 mmHg 38%
    14:00 +41°C° 0 mm 5 mps 751 mmHg 37%
    15:00 +40°C° 0 mm 5 mps 751 mmHg 38%
    16:00 +40°C° 0 mm 5 mps 751 mmHg 39%
    17:00 +39°C° 0 mm 5 mps 750 mmHg 41%
    18:00 +38°C° 0 mm 6 mps 751 mmHg 45%
    19:00 +36°C° 0 mm 7 mps 751 mmHg 49%
    20:00 +35°C° 0 mm 7 mps 752 mmHg 54%
    21:00 +35°C° 0.8 mm 7 mps 752 mmHg 54%
    22:00 +35°C° 0.8 mm 7 mps 752 mmHg 54%
    23:00 +35°C° 0.8 mm 7 mps 752 mmHg 54%

    Day after tomorrow, 24 June, Sunday

    Time Temperature Precipitation Wind Pressure Humidity
    00:00 +34°C° 0.8 mm 7 mps 752 mmHg 54%
    01:00 +34°C° 0.8 mm 6 mps 752 mmHg 53%
    02:00 +34°C° 0.8 mm 6 mps 751 mmHg 52%
    03:00 +34°C° 0.1 mm 6 mps 751 mmHg 52%
    04:00 +33°C° 0.1 mm 5 mps 752 mmHg 52%
    05:00 +33°C° 0.1 mm 5 mps 752 mmHg 52%
    06:00 +33°C° 0 mm 5 mps 752 mmHg 51%
    07:00 +34°C° 0 mm 5 mps 753 mmHg 49%
    08:00 +35°C° 0 mm 5 mps 753 mmHg 47%
    09:00 +36°C° 0 mm 5 mps 753 mmHg 43%
    10:00 +37°C° 0 mm 4 mps 753 mmHg 40%
    11:00 +40°C° 0 mm 4 mps 754 mmHg 36%
    12:00 +40°C° 0 mm 4 mps 753 mmHg 34%
    13:00 +41°C° 0 mm 5 mps 752 mmHg 32%
    14:00 +42°C° 0 mm 5 mps 751 mmHg 30%
    15:00 +41°C° 0 mm 5 mps 751 mmHg 33%
    16:00 +40°C° 0 mm 5 mps 751 mmHg 37%
    17:00 +39°C° 0 mm 6 mps 751 mmHg 40%
    18:00 +38°C° 0.4 mm 6 mps 751 mmHg 44%
    19:00 +38°C° 0.4 mm 7 mps 752 mmHg 48%
    20:00 +36°C° 0.4 mm 7 mps 753 mmHg 52%
    21:00 +36°C° 0.9 mm 7 mps 753 mmHg 52%
    22:00 +36°C° 0.9 mm 7 mps 753 mmHg 51%
    23:00 +35°C° 0.9 mm 7 mps 753 mmHg 51%

    25 June, Monday

    Time Temperature Precipitation Wind Pressure Humidity
    00:00 +35°C° 0.4 mm 7 mps 752 mmHg 50%
    01:00 +35°C° 0.4 mm 6 mps 752 mmHg 48%
    02:00 +34°C° 0.4 mm 6 mps 751 mmHg 47%
    03:00 +34°C° 0 mm 6 mps 752 mmHg 48%
    04:00 +33°C° 0 mm 5 mps 752 mmHg 49%
    05:00 +33°C° 0 mm 5 mps 752 mmHg 50%
    06:00 +34°C° 0 mm 5 mps 753 mmHg 48%
    07:00 +34°C° 0 mm 5 mps 753 mmHg 46%
    08:00 +35°C° 0 mm 5 mps 754 mmHg 44%
    09:00 +36°C° 0 mm 5 mps 754 mmHg 41%
    10:00 +38°C° 0 mm 4 mps 754 mmHg 38%
    11:00 +40°C° 0 mm 4 mps 754 mmHg 34%
    12:00 +40°C° 0 mm 4 mps 753 mmHg 33%
    13:00 +41°C° 0 mm 5 mps 752 mmHg 32%
    14:00 +41°C° 0 mm 5 mps 751 mmHg 31%
    15:00 +40°C° 0 mm 5 mps 751 mmHg 34%
    16:00 +39°C° 0 mm 5 mps 751 mmHg 37%
    17:00 +39°C° 0 mm 5 mps 750 mmHg 41%
    18:00 +37°C° 0.1 mm 5 mps 751 mmHg 43%
    19:00 +36°C° 0.1 mm 6 mps 752 mmHg 46%
    20:00 +36°C° 0.1 mm 6 mps 752 mmHg 49%
    21:00 +36°C° 0.3 mm 6 mps 752 mmHg 47%
    22:00 +35°C° 0.3 mm 6 mps 752 mmHg 46%
    23:00 +35°C° 0.3 mm 6 mps 752 mmHg 45%

    26 June, Tuesday

    Time Temperature Precipitation Wind Pressure Humidity
    00:00 +34°C° 0 mm 6 mps 752 mmHg 47%
    01:00 +34°C° 0 mm 6 mps 751 mmHg 48%
    02:00 +33°C° 0 mm 6 mps 751 mmHg 50%
    03:00 +33°C° 0 mm 5 mps 751 mmHg 51%
    04:00 +33°C° 0 mm 5 mps 751 mmHg 52%
    05:00 +32°C° 0 mm 5 mps 751 mmHg 53%
    06:00 +33°C° 0 mm 5 mps 752 mmHg 50%
    07:00 +34°C° 0 mm 5 mps 753 mmHg 47%
    08:00 +35°C° 0 mm 6 mps 753 mmHg 44%
    09:00 +37°C° 0 mm 5 mps 753 mmHg 41%
    10:00 +39°C° 0 mm 5 mps 753 mmHg 37%
    11:00 +41°C° 0 mm 5 mps 753 mmHg 34%
    12:00 +40°C° 0 mm 5 mps 752 mmHg 35%
    13:00 +40°C° 0 mm 5 mps 752 mmHg 35%
    14:00 +39°C° 0 mm 5 mps 751 mmHg 36%
    15:00 +39°C° 0 mm 5 mps 751 mmHg 38%
    16:00 +38°C° 0 mm 6 mps 751 mmHg 39%
    17:00 +36°C° 0 mm 6 mps 751 mmHg 41%
    18:00 +36°C° 0 mm 6 mps 751 mmHg 41%
    19:00 +36°C° 0 mm 6 mps 752 mmHg 41%
    20:00 +35°C° 0 mm 5 mps 752 mmHg 42%
    21:00 +35°C° 0.1 mm 5 mps 752 mmHg 43%
    22:00 +34°C° 0.1 mm 5 mps 752 mmHg 45%
    23:00 +34°C° 0.1 mm 5 mps 753 mmHg 47%

    27 June, Wednesday

    Time Temperature Precipitation Wind Pressure Humidity
    00:00 +33°C° 0 mm 4 mps 752 mmHg 48%
    01:00 +33°C° 0 mm 4 mps 752 mmHg 49%
    02:00 +33°C° 0 mm 4 mps 751 mmHg 50%
    03:00 +33°C° 0 mm 4 mps 751 mmHg 51%
    04:00 +33°C° 0 mm 4 mps 752 mmHg 51%
    05:00 +33°C° 0 mm 5 mps 752 mmHg 52%
    06:00 +33°C° 0 mm 5 mps 752 mmHg 50%
    07:00 +34°C° 0 mm 5 mps 753 mmHg 48%
    08:00 +35°C° 0 mm 6 mps 753 mmHg 46%
    09:00 +36°C° 0 mm 5 mps 753 mmHg 41%
    10:00 +39°C° 0 mm 5 mps 753 mmHg 36%
    11:00 +41°C° 0 mm 4 mps 753 mmHg 31%
    12:00 +41°C° 0 mm 4 mps 752 mmHg 31%
    13:00 +41°C° 0 mm 4 mps 752 mmHg 30%
    14:00 +40°C° 0 mm 4 mps 751 mmHg 30%
    15:00 +39°C° 0 mm 5 mps 751 mmHg 34%
    16:00 +39°C° 0 mm 5 mps 751 mmHg 38%
    17:00 +38°C° 0 mm 6 mps 751 mmHg 42%
    18:00 +36°C° 0 mm 6 mps 751 mmHg 44%
    19:00 +36°C° 0 mm 6 mps 752 mmHg 45%
    20:00 +35°C° 0 mm 7 mps 752 mmHg 47%
    21:00 +34°C° 0.2 mm 7 mps 752 mmHg 50%
    22:00 +34°C° 0.2 mm 7 mps 753 mmHg 54%
    23:00 +33°C° 0.2 mm 7 mps 753 mmHg 58%
    Show more